This is the latest recevied weather packets stored in our database for station/object WB4E-13. If no packets are shown the sender has not sent any weather packets the latest 10 day(s).
| Time | Temp. | Humidity | Pressure | Rain* | Wind** | Luminosity | Snow |
|---|---|---|---|---|---|---|---|
| 1788136004 | 85° F | 69% | 761.3 mmHg | 0 in | - | - | - |
| 1788135404 | 85° F | 68% | 761.2 mmHg | 0 in | - | - | - |
| 1788134804 | 86° F | 67% | 761.4 mmHg | 0 in | - | - | - |
| 1788134235 | 86° F | 65% | 761.4 mmHg | 0 in | - | - | - |
| 1788134204 | 86° F | 65% | 761.4 mmHg | 0 in | - | - | - |
| 1788133603 | 86° F | 64% | 761.3 mmHg | 0 in | - | - | - |
| 1788133003 | 87° F | 63% | 761.3 mmHg | 0 in | - | - | - |
| 1788132403 | 87° F | 62% | 761.2 mmHg | 0 in | - | - | - |
| 1788131803 | 87° F | 60% | 761.2 mmHg | 0 in | - | - | - |
| 1788131202 | 87° F | 61% | 761.2 mmHg | 0 in | - | - | - |
| 1788130641 | 87° F | 60% | 761.1 mmHg | 0 in | - | - | - |
| 1788130602 | 87° F | 60% | 761.1 mmHg | 0 in | - | - | - |
| 1788130035 | 87° F | 60% | 761.1 mmHg | 0 in | - | - | - |
| 1788130002 | 87° F | 60% | 761.1 mmHg | 0 in | - | - | - |
| 1788129407 | 87° F | 61% | 761.2 mmHg | 0 in | - | - | - |
| 1788128807 | 87° F | 59% | 761.1 mmHg | 0 in | - | - | - |
| 1788128207 | 87° F | 58% | 761.1 mmHg | 0 in | - | - | - |
| 1788127606 | 87° F | 61% | 761.2 mmHg | 0 in | - | - | - |
| 1788127006 | 87° F | 58% | 761.2 mmHg | 0 in | - | - | - |
| 1788126406 | 87° F | 57% | 761.2 mmHg | 0 in | - | - | - |
| 1788125806 | 87° F | 57% | 761.3 mmHg | 0 in | - | - | - |
| 1788125206 | 87° F | 59% | 761.4 mmHg | 0 in | - | - | - |
| 1788124604 | 87° F | 59% | 761.4 mmHg | 0 in | - | - | - |
| 1788124004 | 87° F | 61% | 761.4 mmHg | 0 in | - | - | - |
| 1788123404 | 87° F | 59% | 761.4 mmHg | 0 in | - | - | - |
* Rain latest hour (hover to see other rain measurements)
** Current wind speed in m/s (hover to see current wind gust speed)